Location: Pedholt
(56.0260°N, 10.2097°E)
Time: 06:53:49
(UTC+00:00)

Transit 2A Rocket - Pass Details

Date: 03 August 2021
Orbit: 586 x 917 km, 66.7° (Epoch: 24 September)

Event Time Altitude Azimuth Distance (km) Brightness Sun altitude
Rises 22:44:37 0° 309° (NW) 3,280 9.1 -16.2°
Reaches altitude 10° 22:47:50 10° 289° (WNW) 2,411 7.9 -16.3°
Maximum altitude 22:51:10 16° 252° (WSW) 2,050 7.1 -16.4°
Enters shadow 22:53:59 12° 221° (SW) 2,376 7.2 -16.4°
Drops below altitude 10° 22:54:38 10° 216° (SW) 2,517 - -16.4°
Sets 22:58:06 0° 196° (SSW) 3,494 - -16.5°
